Total_Precipitation_Accumulation
1.33 1.17 0.97 0.89 0.81 0.73 0.71 0.72 0.66 0.61 0.56 0.53 0.50 0.44 0.41 0.36 0.34 0.31 0.28 0.27 0.35 0.56 0.76 0.94 1.00 0.94 0.92 0.90 0.79 0.74 0.71 0.70 0.69 0.68 0.66 0.62 0.60 0.60 0.61 0.61 0.60 0.62 0.65
1.54 1.45 1.27 1.11 1.01 0.92 0.82 0.80 0.73 0.68 0.63 0.57 0.53 0.48 0.47 0.43 0.38 0.34 0.28 0.24 0.26 0.38 0.60 0.89 1.15 1.25 1.26 1.27 1.11 1.01 0.92 0.84 0.81 0.77 0.74 0.72 0.69 0.68 0.68 0.71 0.70 0.71 0.75
1.65 1.63 1.49 1.31 1.11 1.10 1.07 1.03 0.92 0.82 0.75 0.66 0.59 0.53 0.51 0.48 0.43 0.40 0.38 0.31 0.27 0.28 0.42 0.67 0.98 1.18 1.28 1.39 1.36 1.26 1.12 0.98 0.92 0.88 0.86 0.83 0.79 0.75 0.76 0.79 0.82 0.84 0.86
1.68 1.72 1.60 1.49 1.38 1.25 1.19 1.16 1.08 0.96 0.89 0.83 0.74 0.66 0.62 0.55 0.46 0.39 0.38 0.39 0.38 0.34 0.35 0.50 0.70 0.88 1.04 1.20 1.37 1.44 1.40 1.22 1.04 0.95 0.91 0.90 0.90 0.90 0.90 0.91 0.91 0.92 0.92
1.90 1.78 1.63 1.52 1.58 1.51 1.32 1.26 1.20 1.05 0.93 0.86 0.81 0.77 0.74 0.68 0.58 0.49 0.40 0.36 0.35 0.37 0.39 0.47 0.56 0.61 0.73 0.88 1.14 1.38 1.44 1.40 1.24 1.08 0.99 0.95 0.96 1.01 1.07 1.11 1.07 1.03 1.03
2.07 2.06 1.85 1.73 1.70 1.69 1.54 1.37 1.27 1.16 1.01 0.98 0.94 0.87 0.85 0.86 0.76 0.66 0.56 0.46 0.39 0.37 0.39 0.44 0.51 0.51 0.55 0.65 0.82 1.06 1.25 1.34 1.34 1.29 1.21 1.17 1.16 1.18 1.24 1.29 1.28 1.27 1.28
2.08 2.15 2.09 1.99 1.86 1.69 1.62 1.55 1.44 1.30 1.14 1.11 1.11 0.96 0.87 0.88 0.86 0.76 0.68 0.59 0.51 0.48 0.47 0.48 0.53 0.54 0.52 0.57 0.63 0.74 0.88 1.02 1.18 1.28 1.30 1.29 1.31 1.33 1.36 1.42 1.44 1.45 1.49
2.20 2.12 2.08 2.11 2.09 1.90 1.76 1.66 1.63 1.47 1.29 1.23 1.22 1.20 1.01 0.88 0.80 0.73 0.70 0.64 0.57 0.56 0.57 0.59 0.61 0.62 0.60 0.57 0.56 0.61 0.66 0.81 1.06 1.32 1.43 1.45 1.52 1.54 1.56 1.62 1.70 1.75 1.79
2.32 2.12 2.06 2.09 2.13 2.11 1.99 1.92 1.90 1.78 1.60 1.50 1.38 1.45 1.27 0.95 0.75 0.70 0.69 0.67 0.63 0.59 0.60 0.64 0.67 0.68 0.66 0.63 0.60 0.61 0.68 0.77 1.00 1.33 1.56 1.66 1.73 1.78 1.88 1.97 2.05 2.13 2.12
2.41 2.26 2.17 2.12 2.09 2.08 2.04 2.04 2.10 2.07 1.97 1.83 1.67 1.47 1.32 1.11 0.98 0.80 0.67 0.67 0.70 0.68 0.66 0.67 0.70 0.74 0.73 0.68 0.69 0.74 0.79 0.88 1.04 1.34 1.68 1.94 2.11 2.27 2.38 2.47 2.53 2.56 2.49
2.45 2.32 2.21 2.16 2.05 1.97 1.98 1.99 2.01 2.10 2.06 1.94 1.80 1.66 1.52 1.28 1.07 0.99 0.78 0.63 0.64 0.64 0.65 0.65 0.64 0.63 0.69 0.72 0.75 0.86 0.97 1.03 1.17 1.44 1.82 2.18 2.45 2.73 2.96 3.10 3.12 3.06 2.96
2.44 2.32 2.21 2.12 2.04 1.95 1.88 1.92 1.94 2.02 2.09 1.98 1.85 1.70 1.61 1.47 1.26 1.17 1.04 0.83 0.78 0.70 0.66 0.65 0.68 0.70 0.73 0.77 0.85 1.03 1.09 1.13 1.27 1.54 1.92 2.22 2.44 2.72 2.94 3.22 3.38 3.33 3.26
2.34 2.14 2.08 2.04 1.97 1.89 1.89 1.92 1.92 1.85 1.90 1.93 1.90 1.78 1.68 1.51 1.36 1.37 1.38 1.21 1.04 0.86 0.79 0.75 0.74 0.80 0.88 0.94 0.99 1.15 1.14 1.18 1.26 1.40 1.71 2.01 2.11 2.22 2.45 2.80 3.15 3.32 3.28
2.34 2.20 2.08 2.08 2.08 1.98 1.92 1.91 1.89 1.80 1.77 1.79 1.80 1.79 1.76 1.64 1.52 1.49 1.52 1.61 1.56 1.29 1.07 0.96 0.92 0.98 1.03 1.08 1.17 1.28 1.17 1.29 1.29 1.32 1.46 1.66 1.70 1.68 1.74 1.94 2.27 2.58 2.82
2.18 2.17 2.10 2.06 2.04 2.07 2.01 1.96 1.89 1.74 1.67 1.68 1.67 1.67 1.64 1.56 1.55 1.55 1.61 1.73 1.91 1.80 1.43 1.13 1.09 1.12 1.16 1.16 1.22 1.11 1.01 1.18 1.22 1.21 1.24 1.31 1.33 1.28 1.27 1.40 1.56 1.69 1.88
1.81 1.94 1.98 1.93 1.91 1.90 1.92 1.93 1.89 1.79 1.66 1.57 1.56 1.60 1.56 1.48 1.48 1.52 1.58 1.63 1.74 1.86 1.66 1.22 1.04 1.02 1.06 1.07 1.14 0.98 0.90 1.06 1.02 1.02 1.07 1.11 1.13 1.09 1.07 1.14 1.23 1.29 1.33
1.62 1.69 1.76 1.75 1.75 1.76 1.75 1.78 1.75 1.70 1.67 1.54 1.45 1.46 1.44 1.37 1.37 1.37 1.41 1.47 1.52 1.56 1.55 1.19 0.95 0.89 0.93 0.91 0.91 0.82 0.77 0.78 0.77 0.88 0.90 0.92 0.94 0.93 0.95 0.99 1.05 1.10 1.15
1.36 1.46 1.53 1.55 1.56 1.53 1.53 1.53 1.52 1.47 1.48 1.45 1.37 1.34 1.32 1.28 1.26 1.23 1.27 1.28 1.27 1.27 1.28 1.15 0.93 0.83 0.78 0.73 0.69 0.65 0.62 0.61 0.60 0.72 0.74 0.76 0.79 0.81 0.81 0.82 0.89 0.94 0.99
1.12 1.20 1.30 1.34 1.36 1.35 1.31 1.29 1.27 1.24 1.19 1.20 1.19 1.19 1.18 1.24 1.27 1.24 1.22 1.18 1.11 1.09 1.10 1.06 0.89 0.75 0.70 0.67 0.67 0.62 0.55 0.52 0.49 0.56 0.61 0.62 0.64 0.69 0.74 0.76 0.77 0.80 0.80
1.07 1.07 1.10 1.15 1.20 1.25 1.27 1.22 1.20 1.21 1.18 1.13 1.12 1.16 1.19 1.21 1.21 1.18 1.17 1.13 1.11 1.12 1.09 1.10 1.01 0.85 0.77 0.71 0.72 0.69 0.63 0.56 0.52 0.50 0.57 0.59 0.63 0.66 0.68 0.68 0.64 0.61 0.60
1.18 1.09 1.10 1.11 1.15 1.22 1.27 1.32 1.32 1.35 1.39 1.39 1.32 1.26 1.23 1.27 1.25 1.20 1.15 1.11 1.12 1.18 1.21 1.22 1.13 0.95 0.79 0.74 0.73 0.68 0.69 0.66 0.63 0.59 0.61 0.58 0.57 0.54 0.54 0.59 0.62 0.62 0.60
1.32 1.22 1.20 1.20 1.23 1.28 1.50 1.50 1.42 1.39 1.44 1.42 1.37 1.24 1.16 1.17 1.13 1.16 1.13 1.09 1.12 1.21 1.30 1.30 1.15 0.92 0.68 0.59 0.63 0.74 0.85 0.97 0.90 0.63 0.61 0.59 0.56 0.57 0.53 0.52 0.59 0.62 0.66
1.38 1.35 1.34 1.36 1.39 1.43 1.54 1.42 1.40 1.29 1.27 1.21 1.16 1.13 1.07 1.02 1.04 0.95 1.03 1.12 1.14 1.20 1.19 1.10 0.99 0.79 0.67 0.62 0.76 0.97 0.98 0.97 0.78 0.57 0.67 0.72 0.61 0.60 0.54 0.56 0.68 0.65 0.65
1.50 1.52 1.51 1.52 1.49 1.48 1.46 1.31 1.24 1.09 1.08 1.05 1.00 0.98 0.96 0.95 0.94 0.95 1.01 1.09 0.98 0.91 0.89 0.84 0.79 0.75 0.72 0.73 0.89 1.07 1.08 1.06 0.90 0.76 0.79 0.91 0.72 0.64 0.56 0.56 0.65 0.66 0.68
1.60 1.60 1.54 1.45 1.37 1.31 1.27 1.14 1.09 0.95 0.93 0.91 0.87 0.87 0.90 0.87 0.97 1.14 1.14 1.07 0.90 0.79 0.83 0.88 0.89 0.87 0.90 0.93 0.96 1.14 1.30 1.38 1.21 0.91 0.79 0.88 0.77 0.71 0.68 0.62 0.61 0.67 0.67
1.46 1.40 1.36 1.29 1.18 1.07 1.07 1.01 0.98 0.87 0.86 0.81 0.78 0.78 0.88 0.88 1.04 1.17 1.04 0.98 0.90 0.81 0.81 0.80 0.80 0.79 0.76 0.79 0.93 1.01 1.32 1.68 1.45 1.11 0.74 0.89 0.89 0.95 1.12 0.75 0.62 0.65 0.68